Location: Helsinki
(60.1699°N, 24.9384°E)
Time: 15:59:23
(UTC+02:00)

Explorer 7 - Visible Passes

Search period start: 30 October 2020 00:00
Search period end: 09 November 2020 00:00
Orbit: 484 x 678 km, 50.3° (Epoch: 30 October)

Date Brightness Start Highest point End Pass type
(mag) Time Alt. Az. Time Alt. Az. Time Alt. Az.
30 Oct 9.3 17:45:22 10° SW 17:47:41 15° SSW 17:50:02 10° SSE visible
31 Oct 9.5 17:50:19 10° SW 17:52:04 13° SSW 17:53:53 10° S visible
01 Nov 9.8 17:56:07 10° SSW 17:56:27 10° SSW 17:56:48 10° SSW visible
